Vorticity
3 2 8 12 7 7 10 7 7 11 9 4 6 10 4 -4 4 14 13 11 9 9 11 12 10 10 12 12 12 12 12 13 12 10 9 10 12 11 9 9 10 10 10 10 11 10 9 12 14 14 12 10 8 7 7 7 7 7 7 6 5 3 4 5 6 6 8 8 9 8 7 6 5 4 4 4 5 5 5 5 5 5 5 5 6
5 4 16 17 1 2 10 7 5 12 15 7 3 9 10 4 6 9 11 14 14 14 14 9 6 7 8 11 12 9 6 5 5 8 11 12 13 10 8 9 9 9 9 9 9 9 10 12 10 7 6 5 5 6 6 6 6 7 6 6 4 2 5 8 6 6 6 7 7 6 5 5 4 4 4 5 5 5 4 5 5 5 5 5 5
1 3 18 19 6 6 10 6 6 12 16 14 8 9 10 7 6 5 9 16 13 8 8 7 7 5 1 2 4 3 4 6 8 10 11 13 13 9 7 8 8 8 8 8 8 8 8 9 6 3 2 2 3 5 5 5 5 5 6 5 2 2 7 9 5 3 5 5 5 6 6 6 5 5 5 5 4 5 5 4 5 5 5 5 5
5 6 9 9 9 10 8 5 5 5 12 18 15 11 9 7 5 7 11 14 11 4 2 4 3 1 1 1 3 6 7 7 7 7 11 13 9 6 6 7 7 7 7 7 7 5 5 6 5 3 2 3 4 5 5 4 5 7 7 3 -0 2 6 5 2 4 6 5 5 6 6 7 7 6 5 5 5 4 4 4 4 4 5 5 5
11 20 15 6 8 9 6 6 4 4 13 18 15 10 8 7 7 10 13 13 13 11 5 3 2 1 4 5 5 7 9 8 6 6 12 12 7 6 6 6 7 6 6 6 5 4 4 4 4 3 3 5 7 6 4 3 5 7 5 2 0 2 3 3 4 5 5 5 6 7 5 5 6 7 7 6 5 4 5 5 4 5 5 5 5
7 21 11 -5 2 9 6 3 4 10 13 13 16 13 4 7 10 11 13 12 11 11 6 6 8 7 8 9 10 13 14 14 11 9 12 10 6 6 6 6 7 6 7 7 6 6 5 4 4 4 3 4 5 5 3 3 6 6 4 2 1 1 3 5 6 5 4 5 6 6 6 5 4 6 7 7 6 6 5 4 5 5 5 5 6
9 21 14 -3 0 9 9 6 12 26 26 16 19 18 6 7 11 10 13 12 7 6 7 8 9 10 12 12 13 14 14 13 12 12 13 9 5 4 4 5 6 5 7 7 6 7 5 5 5 4 5 5 5 7 6 5 6 6 4 3 2 3 4 5 5 4 5 7 6 5 6 5 4 5 4 4 6 6 5 6 5 4 5 5 6
1 14 23 13 3 6 11 8 6 29 45 27 8 9 10 9 10 11 12 9 4 5 9 10 10 11 12 11 13 14 14 14 15 15 14 9 4 3 3 5 5 5 6 6 6 6 5 6 6 5 7 7 7 8 6 4 4 4 4 4 5 6 4 4 6 4 4 6 7 5 4 5 6 5 3 3 4 4 5 6 5 5 6 6 6
-1 6 15 10 6 11 19 16 3 9 28 17 -8 -6 8 10 11 16 15 8 3 3 7 11 12 9 9 11 15 16 16 18 17 15 12 8 4 4 4 6 7 7 7 7 7 6 6 7 7 6 6 5 5 4 4 4 4 4 5 3 6 8 4 3 5 5 5 6 6 6 6 6 5 3 4 5 4 4 5 4 6 7 5 5 7
7 9 10 9 15 17 14 17 13 5 10 12 -1 -7 1 7 10 17 18 10 3 1 6 10 9 6 6 10 14 17 17 17 14 11 8 5 4 4 5 5 6 7 8 8 7 6 7 7 7 7 6 6 7 5 5 5 4 5 6 4 5 8 5 4 5 6 7 6 5 5 6 6 5 4 5 4 4 6 6 5 5 5 4 6 5
20 19 15 14 14 10 5 8 14 14 13 12 6 -1 2 8 9 10 13 10 7 7 8 7 6 6 4 6 11 13 12 9 7 5 4 3 3 3 3 4 4 5 6 6 7 7 7 7 7 8 7 7 7 6 6 7 6 6 7 5 5 7 6 6 6 5 7 7 6 6 5 4 5 5 4 3 5 9 10 9 8 6 7 6 3
16 10 7 14 16 12 12 11 12 20 18 6 2 3 7 10 8 7 9 10 9 9 8 7 9 8 3 2 6 7 5 3 1 1 1 2 4 5 7 9 8 9 8 7 7 7 7 7 6 6 5 5 6 7 7 8 7 7 7 7 6 7 8 8 7 6 8 7 7 7 5 5 4 3 3 3 5 5 2 1 4 4 5 6 4
21 15 6 16 27 22 14 12 16 23 12 -2 2 10 11 12 11 7 8 12 10 5 4 9 12 9 4 5 6 6 5 4 2 3 5 4 5 7 9 10 10 11 10 10 9 7 6 6 4 4 5 5 8 9 9 8 8 7 7 8 8 8 8 9 8 8 7 8 8 7 4 4 5 5 5 6 7 5 0 -1 0 0 3 5 3
16 14 14 21 20 8 1 2 8 10 1 -1 10 13 8 9 9 6 8 14 15 8 4 8 10 8 7 8 7 7 7 6 5 5 5 2 2 5 8 8 8 9 9 12 14 12 9 7 5 5 6 8 10 10 9 8 7 7 8 8 8 9 8 8 8 8 8 8 9 7 6 5 6 6 6 6 6 5 5 6 4 4 6 4 2
9 12 34 40 19 8 13 11 6 6 6 6 8 10 13 10 5 8 13 12 11 9 7 8 9 9 9 10 8 6 5 6 6 7 7 4 0 2 7 9 9 9 9 10 13 14 11 9 7 5 6 9 11 9 7 8 8 8 8 8 8 8 8 8 8 8 8 8 8 8 7 5 5 5 5 5 5 4 5 6 5 5 5 3 5
24 28 24 7 -8 -0 14 13 11 14 11 1 -5 5 21 15 1 7 14 8 6 10 12 12 9 7 7 9 11 9 5 1 -0 3 7 6 0 -1 4 9 11 11 10 9 10 10 8 7 6 6 9 12 10 8 8 7 5 5 5 6 7 7 7 7 7 6 6 6 7 6 5 5 6 5 4 4 5 5 5 6 7 8 6 4 6
35 41 11 -16 -13 6 12 5 2 1 -2 -4 -5 2 11 6 -1 8 12 8 8 11 11 12 10 8 8 9 13 16 14 10 8 10 15 14 6 0 1 5 9 11 11 9 7 6 4 4 6 10 12 12 9 7 6 4 3 4 6 6 6 5 4 4 5 6 6 5 6 5 4 5 5 4 4 3 3 4 4 4 7 7 4 3 3
16 27 26 19 16 18 15 7 2 -4 -4 0 1 3 8 7 7 13 12 10 12 10 9 13 13 11 9 9 12 13 13 13 12 14 21 23 13 2 -0 4 8 12 13 10 7 6 4 5 9 11 10 8 7 6 4 3 4 5 6 6 5 4 5 5 5 5 4 5 5 5 6 6 4 4 5 4 4 6 5 6 8 6 5 7 6
-3 1 15 14 1 -5 -0 7 10 6 5 10 8 5 6 7 9 13 11 8 7 7 10 13 10 7 10 16 20 19 14 12 10 11 19 24 17 5 0 3 6 9 10 8 7 7 7 10 13 11 6 4 4 4 4 4 6 6 6 7 6 6 7 6 6 6 6 7 7 7 8 7 6 6 6 4 4 3 4 9 11 9 10 11 9
16 8 6 2 -0 3 6 6 6 4 9 20 21 13 9 9 9 9 9 7 7 13 18 14 7 8 13 14 14 13 11 9 10 13 17 19 15 6 0 1 4 7 8 8 8 9 10 12 11 5 2 2 2 2 3 3 3 5 7 8 9 9 8 8 7 7 7 7 8 9 10 9 8 7 6 5 5 4 6 10 9 5 4 3 1
29 29 25 19 15 16 9 -2 -6 6 23 32 27 18 17 17 12 5 7 11 14 18 19 13 6 5 5 2 2 3 5 6 11 18 24 22 13 4 0 0 2 5 8 7 6 7 8 9 7 3 2 3 3 4 5 5 7 8 8 8 8 8 8 8 7 7 7 8 8 7 6 4 3 4 5 5 5 4 5 5 3 1 1 2 3
17 23 28 31 31 36 39 31 21 24 32 28 21 18 16 15 13 8 6 8 8 6 6 6 6 5 4 5 7 9 10 11 10 16 24 22 12 5 3 1 2 6 9 9 9 9 4 -0 1 5 5 4 4 5 6 7 10 11 13 14 13 13 12 11 9 8 8 6 3 1 0 -0 0 3 4 3 3 3 3 2 3 3 3 3 6
2 -2 -5 2 10 18 29 33 28 21 14 7 7 12 10 8 10 7 1 1 3 5 6 7 8 9 10 12 12 12 15 15 10 8 10 9 6 4 4 3 4 6 6 6 10 13 8 0 -0 5 6 6 9 12 12 9 6 5 8 10 9 8 7 3 1 1 1 -0 -1 -0 1 1 1 3 3 1 2 5 7 7 7 7 5 3 4
8 4 -2 -2 1 2 4 7 7 5 3 1 2 6 6 5 6 8 12 13 11 9 9 7 6 8 10 10 10 11 12 12 12 11 10 10 10 11 12 13 15 14 12 9 8 8 7 4 2 2 2 1 3 4 4 3 2 2 3 1 -3 -4 -3 -0 2 4 5 5 6 5 5 5 6 7 7 6 6 7 8 8 9 9 7 6 6
8 8 7 7 7 7 8 9 8 6 6 4 3 4 4 4 2 4 9 11 9 6 7 7 6 7 7 5 4 5 4 2 3 5 6 6 7 9 11 13 14 12 10 8 4 0 -0 1 1 2 2 3 2 0 -1 -1 2 3 3 3 2 3 7 11 12 11 11 11 9 9 9 10 10 10 9 8 7 6 5 5 5 4 4 5 6
5 5 5 6 6 7 8 10 13 13 11 8 6 5 5 7 6 1 -5 -6 -3 1 5 7 7 7 6 4 2 1 -1 -1 1 2 2 2 2 3 3 5 6 7 6 6 7 7 6 8 9 9 9 9 9 9 8 7 7 6 6 7 8 10 11 12 10 9 8 7 6 6 7 8 8 7 6 5 5 6 6 6 6 6 5 6 7
4 3 2 2 4 5 6 6 9 12 15 15 12 8 6 7 8 7 3 -0 1 3 5 7 6 5 4 3 3 1 -1 2 6 6 5 4 4 5 5 5 5 6 5 5 5 5 5 5 6 6 6 6 6 7 8 9 9 10 10 9 9 7 5 4 4 4 3 1 0 2 4 6 7 6 5 6 8 9 9 9 10 11 11 12 13
4 5 5 3 2 4 7 8 9 9 12 17 17 13 10 7 6 7 9 8 8 8 9 7 7 7 7 6 6 6 4 5 7 6 5 5 5 5 6 6 5 5 5 5 4 4 5 6 7 8 8 9 9 9 9 9 8 7 5 4 4 3 2 2 3 2 2 3 5 7 9 10 10 10 11 13 15 17 18 18 19 20 21 22 23
3 6 7 4 4 6 7 7 8 7 9 15 19 18 17 17 16 15 12 9 8 9 9 8 7 8 9 10 9 5 2 3 5 5 6 6 6 7 8 8 9 9 10 10 9 9 10 10 10 10 10 9 7 6 5 4 4 3 3 3 3 4 5 6 6 6 8 10 11 12 13 15 16 16 16 18 20 20 21 22 22 22 24 25 26
5 8 8 6 6 8 8 6 6 7 8 11 13 12 10 9 8 8 5 3 4 5 5 5 4 2 2 6 7 4 2 3 6 8 9 10 10 11 11 11 11 11 10 11 11 9 8 7 6 5 5 5 5 4 4 5 5 6 7 7 7 8 10 10 11 12 13 15 16 17 18 18 17 17 18 20 20 19 19 20 20 20 21 23 24
11 11 11 10 8 8 9 9 8 7 8 9 9 8 5 1 -3 -4 -3 -3 -1 2 4 6 6 5 5 7 9 10 8 7 7 8 9 10 10 10 10 9 9 7 7 7 6 6 6 6 5 5 5 5 6 7 7 7 7 8 9 9 10 12 13 12 13 14 15 17 17 18 18 17 16 17 18 19 20 21 21 22 22 21 21 21 21
12 12 13 14 14 13 15 16 16 14 13 13 11 9 8 7 5 4 4 6 9 12 13 14 15 14 14 14 13 14 13 11 10 8 7 7 6 6 6 5 4 4 5 5 5 6 7 7 6 7 7 7 6 6 6 6 6 8 8 10 11 12 12 13 13 14 14 14 14 15 17 18 20 21 21 22 23 23 23 22 21 19 18 17 16
8 8 8 10 11 10 11 13 15 15 16 17 17 16 15 15 16 15 15 16 17 16 16 16 15 14 14 13 11 10 9 8 7 6 5 5 5 5 6 6 7 8 8 8 8 8 7 6 5 5 5 5 5 5 7 8 9 9 10 11 11 12 14 16 17 17 18 18 20 22 22 22 23 24 23 23 21 18 16 15 15 13 11 10 10
10 9 7 7 7 6 6 8 9 10 10 11 12 12 12 12 13 13 12 11 11 10 10 10 9 8 7 6 6 6 5 5 5 5 5 6 6 6 7 6 6 6 4 4 5 5 4 4 4 4 4 5 6 7 9 11 12 14 15 17 17 18 20 21 22 23 24 24 24 23 21 19 19 18 16 14 14 13 13 12 11 10 10 9 9
6 6 6 7 7 6 5 6 6 6 6 6 6 6 6 6 6 6 5 5 5 6 6 5 5 6 6 6 6 5 5 6 6 6 6 6 5 5 5 4 4 4 4 4 4 3 5 6 7 8 10 11 13 15 16 18 21 22 23 23 22 22 21 20 19 18 17 17 17 16 16 16 15 14 13 13 12 11 10 10 10 10 10 11 12
7 6 5 5 4 4 4 4 4 4 4 4 4 4 4 4 4 3 4 4 4 4 4 4 5 5 5 6 6 6 6 6 6 6 6 6 6 6 6 7 8 8 8 9 10 11 13 14 16 18 20 22 23 25 25 25 24 22 20 18 17 15 15 14 14 14 14 14 15 14 14 14 13 12 11 10 10 11 12 12 13 14 14 16 17
13 12 11 10 9 8 7 7 7 8 8 8 8 8 8 9 9 9 9 9 9 9 8 9 9 8 8 8 7 7 7 7 8 8 9 10 11 11 11 12 13 13 14 16 18 19 20 21 22 24 25 25 25 23 21 18 16 14 14 14 14 15 16 16 15 15 14 13 13 12 12 12 11 11 14 17 19 21 20 19 20 21 22 23 24
15 15 16 17 18 17 16 15 15 14 15 15 15 13 12 12 12 12 12 12 13 12 11 11 12 12 12 12 12 12 13 13 14 14 14 14 15 16 16 17 18 19 20 20 21 21 22 22 23 22 20 18 16 14 12 12 12 13 15 16 15 15 14 13 12 13 14 16 17 17 16 17 19 23 28 29 28 26 26 29 32 34 34 34 34
9 10 11 12 13 15 17 19 19 19 19 19 19 18 18 16 15 14 14 14 14 15 15 15 15 15 14 15 15 15 15 16 16 15 15 15 16 17 18 19 19 19 19 20 20 20 20 19 17 15 12 11 11 11 12 13 13 14 14 12 12 13 14 17 20 23 23 23 21 21 24 28 32 33 29 24 25 32 38 42 46 47 48 50 50
5 6 7 8 8 9 10 12 13 14 15 16 16 18 18 18 18 17 17 16 16 16 15 15 15 15 15 15 15 14 14 14 15 15 16 17 18 18 18 18 18 18 19 18 17 15 14 12 10 9 10 10 11 12 13 13 12 12 12 14 18 21 24 25 25 23 22 23 26 30 33 31 25 20 14 14 23 32 32 31 35 36 35 35 35
6 5 6 7 6 6 6 6 7 8 10 11 13 13 13 13 14 14 15 15 15 14 14 14 13 13 13 13 13 14 14 14 15 15 15 16 16 16 15 15 15 14 13 12 10 9 8 8 9 10 11 12 12 12 12 12 13 17 20 23 25 24 21 20 19 20 25 30 31 29 23 15 10 9 9 13 20 19 12 14 23 25 21 19 18
10 9 8 8 7 7 6 6 6 7 7 8 8 8 9 9 10 10 10 11 11 11 11 11 11 11 11 12 12 13 14 14 14 14 13 13 13 12 12 11 10 9 8 7 7 8 9 11 13 13 13 12 11 11 13 16 21 24 25 22 19 15 12 15 20 27 30 26 19 14 10 6 6 9 11 15 19 16 9 13 18 16 13 15 16
16 15 13 10 9 10 9 8 8 8 8 7 7 7 7 8 8 8 9 9 9 9 9 10 11 11 11 11 13 13 13 13 13 12 12 12 11 11 10 9 8 8 9 10 11 13 14 14 12 11 10 10 12 15 19 22 24 23 19 15 11 8 8 13 22 29 28 17 8 8 11 8 7 9 12 16 20 17 14 16 15 9 5 5 5
26 23 21 17 13 12 12 11 11 11 10 8 8 9 9 9 8 9 9 9 9 9 9 10 10 11 12 13 13 12 11 11 11 11 11 10 10 10 10 10 11 12 14 15 15 14 12 9 8 8 10 14 17 20 22 22 20 16 13 11 8 6 6 10 16 23 27 21 11 6 5 7 9 13 16 18 18 17 16 19 20 16 14 14 13
27 26 27 26 23 19 17 15 14 13 13 11 10 10 11 11 11 10 10 10 9 9 10 10 9 10 10 10 9 9 9 10 10 10 10 12 12 13 13 14 15 16 15 14 12 9 6 6 8 11 15 19 21 22 20 17 15 13 11 9 7 4 4 6 9 13 21 25 20 9 3 4 11 17 19 19 19 20 21 23 23 17 11 10 12
23 22 24 26 26 24 22 20 17 16 16 15 14 13 12 12 12 11 11 11 10 9 10 11 10 10 9 8 8 9 11 12 13 14 14 15 15 15 15 15 15 13 11 9 7 5 6 8 13 18 21 22 21 20 17 14 12 11 9 8 7 5 3 4 7 9 13 21 25 20 9 3 6 16 21 19 15 16 20 25 25 19 10 6 9
17 16 15 17 21 22 21 19 18 17 16 15 16 15 13 13 13 13 13 12 12 11 11 12 13 13 13 13 14 15 15 15 16 16 15 15 15 15 15 13 11 9 7 6 5 6 10 15 19 21 21 20 18 16 13 11 11 11 9 7 7 6 3 3 8 11 12 17 25 26 15 2 1 12 23 23 14 10 13 17 19 17 14 10 10
17 16 15 15 19 22 23 20 19 18 17 16 16 16 15 14 14 14 14 15 15 16 16 16 16 17 17 18 18 18 17 16 15 14 14 15 14 12 10 9 8 6 5 5 7 12 17 21 21 20 18 18 16 14 12 10 10 10 10 8 6 6 5 5 10 14 13 14 22 27 20 4 -3 7 24 29 19 9 8 12 15 17 18 17 16
15 14 14 15 15 19 22 22 20 20 19 18 16 17 18 17 17 17 18 18 19 19 20 19 19 19 19 18 17 15 14 13 13 13 13 12 10 8 7 6 6 5 5 8 14 19 21 21 19 17 16 17 15 13 11 11 10 9 10 9 8 8 8 8 12 16 15 12 17 25 23 9 -2 4 22 32 25 12 6 9 14 15 14 13 11
14 13 14 13 10 10 13 17 19 19 19 17 16 17 18 18 18 18 19 19 20 20 20 20 19 17 15 13 12 11 12 12 12 11 10 8 7 7 7 6 4 5 9 15 20 21 20 18 17 16 16 16 14 13 12 11 10 10 10 10 9 10 11 12 14 17 14 11 13 22 24 14 4 5 19 31 30 17 8 8 14 20 18 13 11
17 17 17 15 13 11 13 16 19 19 18 16 16 16 16 17 17 17 17 18 18 18 17 15 14 12 11 10 10 10 11 11 10 8 7 6 7 7 6 5 6 9 15 20 20 19 17 16 16 16 15 14 14 13 12 11 11 10 10 11 12 12 13 15 16 16 13 11 13 19 22 19 10 7 15 26 28 22 13 10 13 20 26 27 25
Height
5741 5743 5745 5747 5750 5751 5752 5754 5754 5755 5757 5758 5760 5762 5763 5764 5765 5766 5767 5769 5770 5771 5772 5773 5774 5776 5777 5779 5780 5781 5782 5783 5784 5785 5785 5785 5786 5786 5786 5787 5788 5789 5789 5790 5790 5790 5790 5791 5791 5792 5793 5794 5794 5794 5795 5795 5796 5796 5796 5796 5797 5797 5798 5799 5798 5798 5798 5797 5797 5797 5797 5797 5796 5795 5795 5795 5795 5795 5795 5795 5795 5795 5795 5795 5794
5741 5742 5744 5745 5747 5749 5750 5751 5753 5754 5755 5756 5758 5759 5761 5762 5763 5764 5765 5767 5768 5769 5769 5770 5772 5773 5775 5776 5777 5778 5780 5781 5782 5783 5783 5783 5783 5784 5784 5785 5786 5787 5787 5787 5788 5788 5788 5789 5789 5790 5791 5792 5793 5793 5793 5793 5794 5794 5794 5794 5795 5795 5796 5797 5796 5795 5795 5795 5795 5795 5795 5795 5794 5794 5794 5793 5793 5793 5793 5793 5793 5793 5793 5793 5793
5741 5741 5743 5743 5744 5746 5747 5749 5750 5752 5753 5755 5756 5757 5758 5759 5760 5762 5763 5765 5766 5766 5767 5768 5769 5771 5772 5773 5775 5776 5777 5778 5779 5780 5780 5780 5781 5782 5782 5783 5784 5785 5785 5785 5785 5785 5786 5787 5788 5788 5789 5790 5791 5791 5791 5791 5792 5792 5792 5793 5793 5793 5794 5794 5794 5793 5793 5793 5793 5793 5793 5793 5793 5792 5792 5792 5792 5792 5792 5791 5791 5791 5791 5791 5790
5739 5739 5740 5741 5742 5742 5744 5746 5748 5749 5751 5752 5753 5754 5756 5757 5758 5760 5761 5763 5764 5764 5765 5766 5767 5769 5770 5771 5772 5773 5775 5776 5776 5777 5778 5778 5779 5780 5781 5782 5782 5783 5783 5784 5784 5784 5784 5786 5786 5786 5787 5788 5788 5789 5789 5789 5790 5790 5791 5790 5790 5791 5791 5792 5792 5791 5791 5791 5791 5791 5791 5790 5790 5790 5790 5790 5790 5790 5789 5789 5789 5789 5788 5788 5787
5736 5737 5738 5739 5740 5740 5741 5743 5745 5747 5748 5750 5751 5752 5754 5755 5756 5758 5760 5761 5761 5762 5763 5764 5765 5767 5768 5768 5770 5771 5772 5773 5774 5775 5775 5776 5777 5778 5779 5780 5780 5781 5782 5782 5782 5782 5783 5784 5784 5784 5785 5786 5786 5787 5787 5787 5788 5789 5789 5788 5788 5788 5789 5790 5790 5790 5789 5789 5788 5788 5788 5788 5788 5788 5788 5788 5787 5787 5787 5787 5786 5786 5786 5785 5785
5733 5735 5736 5737 5738 5738 5739 5741 5743 5744 5745 5747 5749 5750 5752 5753 5755 5756 5757 5758 5759 5759 5760 5762 5763 5764 5765 5766 5767 5768 5769 5770 5771 5772 5773 5774 5775 5776 5777 5778 5778 5779 5780 5780 5781 5781 5781 5782 5782 5783 5783 5783 5784 5785 5785 5785 5785 5786 5786 5786 5786 5786 5787 5787 5788 5787 5787 5786 5786 5785 5785 5785 5784 5784 5785 5785 5785 5784 5784 5783 5783 5783 5783 5783 5782
5730 5732 5733 5734 5735 5736 5737 5738 5740 5740 5741 5744 5746 5748 5750 5751 5752 5754 5754 5755 5756 5756 5758 5759 5760 5762 5763 5764 5764 5765 5766 5767 5768 5769 5770 5771 5773 5774 5774 5775 5776 5776 5777 5778 5778 5779 5779 5779 5780 5781 5781 5781 5782 5783 5783 5782 5783 5784 5784 5784 5784 5784 5784 5785 5785 5785 5784 5783 5783 5782 5782 5782 5781 5781 5781 5781 5781 5781 5780 5780 5780 5780 5780 5780 5780
5726 5728 5728 5730 5732 5733 5734 5736 5737 5737 5738 5741 5744 5746 5748 5749 5750 5751 5751 5752 5753 5754 5755 5756 5757 5759 5760 5761 5762 5763 5763 5764 5765 5766 5768 5769 5770 5771 5772 5772 5773 5774 5774 5775 5776 5776 5776 5777 5778 5778 5778 5778 5779 5780 5780 5780 5780 5781 5781 5781 5781 5782 5782 5782 5782 5781 5781 5781 5780 5779 5779 5778 5778 5778 5777 5777 5776 5776 5776 5776 5776 5776 5776 5776 5777
5722 5724 5725 5727 5729 5730 5731 5732 5734 5736 5737 5739 5741 5743 5745 5746 5747 5748 5749 5750 5751 5751 5752 5753 5755 5756 5757 5759 5761 5760 5760 5761 5762 5764 5766 5767 5767 5768 5769 5769 5770 5771 5772 5773 5773 5773 5774 5775 5776 5776 5776 5776 5777 5777 5777 5777 5777 5778 5779 5778 5779 5779 5778 5778 5778 5778 5777 5777 5776 5776 5775 5775 5774 5774 5773 5773 5772 5771 5772 5772 5772 5772 5772 5772 5772
5719 5721 5722 5724 5725 5726 5727 5729 5731 5733 5735 5737 5739 5740 5742 5743 5744 5745 5746 5747 5748 5749 5750 5751 5753 5754 5756 5757 5758 5758 5758 5759 5760 5762 5763 5764 5765 5765 5766 5766 5767 5768 5769 5770 5770 5770 5771 5772 5773 5774 5773 5773 5774 5774 5774 5774 5775 5775 5775 5775 5775 5776 5775 5774 5775 5775 5774 5774 5773 5772 5771 5771 5770 5770 5769 5769 5768 5767 5767 5768 5768 5767 5767 5767 5767
5717 5718 5719 5720 5721 5723 5725 5726 5727 5730 5732 5734 5736 5737 5738 5740 5741 5742 5743 5743 5745 5746 5747 5748 5750 5753 5754 5755 5756 5757 5757 5758 5758 5759 5760 5761 5762 5763 5763 5764 5764 5765 5766 5767 5767 5767 5768 5769 5770 5770 5770 5771 5771 5771 5771 5772 5772 5772 5772 5771 5771 5772 5772 5771 5771 5771 5771 5770 5769 5768 5767 5766 5766 5765 5765 5764 5764 5763 5763 5763 5763 5763 5763 5763 5763
5713 5714 5715 5716 5717 5719 5722 5724 5725 5726 5728 5731 5733 5734 5736 5737 5737 5738 5739 5740 5742 5743 5744 5746 5749 5751 5752 5752 5753 5754 5755 5755 5756 5757 5757 5758 5759 5759 5760 5761 5762 5762 5763 5764 5764 5764 5765 5766 5766 5767 5767 5767 5768 5768 5768 5768 5768 5768 5768 5768 5768 5768 5768 5767 5767 5767 5766 5766 5765 5764 5764 5763 5762 5761 5761 5761 5761 5761 5760 5759 5759 5758 5758 5758 5758
5710 5710 5711 5712 5713 5715 5718 5721 5722 5723 5725 5728 5730 5731 5733 5734 5734 5735 5736 5737 5739 5740 5741 5744 5746 5747 5747 5748 5750 5751 5751 5752 5752 5753 5754 5755 5755 5756 5756 5757 5758 5759 5759 5760 5760 5761 5762 5762 5763 5763 5763 5763 5764 5765 5765 5765 5765 5765 5765 5765 5764 5764 5764 5764 5763 5763 5762 5762 5761 5761 5760 5760 5759 5758 5758 5758 5758 5757 5756 5756 5755 5754 5754 5754 5753
5703 5705 5706 5709 5711 5712 5715 5717 5718 5720 5722 5725 5727 5728 5729 5730 5731 5732 5733 5734 5735 5737 5739 5741 5742 5742 5743 5745 5746 5747 5747 5748 5749 5750 5751 5751 5752 5752 5753 5754 5754 5754 5755 5756 5756 5757 5758 5758 5758 5759 5760 5760 5761 5761 5761 5760 5761 5761 5760 5760 5760 5760 5760 5760 5759 5759 5758 5758 5758 5758 5757 5756 5756 5755 5754 5754 5753 5752 5751 5751 5750 5749 5749 5749 5748
5697 5700 5702 5705 5709 5710 5712 5714 5715 5717 5719 5721 5722 5724 5725 5727 5728 5729 5730 5731 5732 5733 5735 5736 5737 5738 5740 5741 5742 5743 5744 5744 5745 5746 5748 5748 5749 5749 5750 5751 5751 5751 5752 5753 5752 5753 5754 5754 5755 5755 5756 5757 5757 5757 5756 5756 5756 5756 5756 5756 5756 5756 5756 5755 5755 5754 5754 5754 5754 5754 5753 5752 5751 5750 5749 5748 5748 5747 5747 5746 5745 5744 5744 5743 5743
5695 5698 5700 5702 5705 5708 5710 5712 5714 5716 5717 5718 5719 5721 5722 5723 5725 5725 5726 5727 5729 5730 5731 5732 5733 5735 5736 5737 5738 5739 5740 5741 5742 5743 5744 5744 5745 5746 5747 5747 5747 5748 5748 5748 5748 5749 5750 5751 5752 5752 5753 5753 5753 5753 5752 5752 5752 5752 5752 5751 5751 5751 5751 5750 5749 5749 5749 5749 5749 5749 5747 5746 5746 5745 5744 5743 5743 5742 5742 5741 5741 5740 5739 5737 5737
5694 5695 5697 5700 5703 5705 5708 5710 5712 5713 5714 5715 5716 5718 5719 5720 5721 5722 5723 5724 5725 5727 5728 5729 5730 5731 5732 5733 5734 5734 5735 5737 5737 5738 5739 5740 5741 5742 5743 5743 5743 5744 5745 5745 5745 5746 5747 5747 5748 5748 5749 5749 5749 5749 5749 5748 5748 5748 5747 5747 5746 5745 5745 5745 5745 5744 5744 5744 5744 5743 5741 5741 5740 5740 5739 5738 5737 5736 5735 5735 5734 5733 5732 5731 5731
5693 5693 5694 5697 5701 5703 5705 5706 5708 5710 5711 5712 5714 5715 5716 5717 5718 5719 5720 5721 5722 5723 5724 5725 5726 5727 5728 5729 5729 5729 5731 5732 5733 5733 5734 5735 5736 5738 5738 5739 5740 5740 5740 5741 5742 5742 5743 5743 5743 5744 5745 5745 5745 5745 5745 5744 5743 5743 5742 5742 5741 5740 5739 5740 5740 5739 5739 5738 5738 5737 5736 5735 5735 5734 5733 5732 5730 5729 5728 5728 5727 5725 5724 5724 5724
5690 5691 5693 5695 5697 5699 5701 5703 5705 5706 5708 5709 5710 5711 5713 5714 5715 5715 5716 5717 5718 5719 5720 5721 5722 5722 5723 5724 5724 5725 5726 5727 5728 5729 5729 5730 5732 5733 5734 5735 5736 5736 5736 5736 5738 5738 5738 5739 5740 5740 5741 5741 5740 5740 5740 5739 5738 5738 5737 5736 5735 5735 5735 5734 5734 5734 5733 5733 5732 5732 5731 5730 5729 5728 5727 5725 5723 5722 5721 5721 5719 5716 5715 5716 5716
5687 5689 5691 5693 5694 5696 5698 5700 5701 5702 5703 5704 5705 5707 5709 5711 5711 5711 5712 5713 5714 5715 5716 5717 5717 5718 5719 5720 5720 5721 5722 5723 5724 5724 5725 5727 5728 5729 5730 5731 5731 5731 5731 5732 5734 5735 5734 5735 5736 5736 5735 5735 5734 5734 5734 5733 5732 5732 5732 5731 5730 5730 5729 5729 5728 5728 5728 5728 5727 5726 5725 5724 5723 5722 5720 5719 5717 5715 5714 5713 5711 5709 5708 5707 5708
5685 5686 5687 5689 5691 5692 5694 5696 5698 5699 5700 5701 5701 5702 5704 5706 5706 5707 5708 5709 5710 5711 5712 5713 5714 5714 5715 5716 5717 5717 5718 5719 5720 5721 5722 5723 5724 5725 5726 5727 5727 5727 5726 5727 5730 5731 5730 5730 5731 5730 5730 5729 5729 5729 5728 5727 5727 5726 5725 5725 5724 5724 5724 5723 5723 5722 5722 5721 5720 5719 5719 5717 5716 5715 5713 5711 5710 5708 5707 5706 5704 5701 5699 5697 5698
5684 5684 5685 5686 5687 5689 5690 5692 5693 5695 5696 5697 5697 5698 5698 5700 5701 5702 5704 5705 5706 5707 5708 5709 5710 5710 5711 5712 5712 5713 5714 5715 5716 5717 5718 5719 5720 5721 5721 5722 5723 5723 5722 5722 5724 5726 5727 5726 5726 5726 5725 5724 5724 5723 5723 5722 5721 5720 5719 5719 5718 5718 5717 5717 5716 5715 5714 5714 5713 5712 5711 5710 5708 5707 5705 5704 5702 5700 5699 5698 5696 5694 5691 5689 5687
5682 5683 5683 5684 5685 5687 5688 5688 5689 5690 5691 5692 5692 5693 5694 5695 5696 5698 5699 5701 5702 5703 5704 5705 5706 5706 5707 5708 5708 5709 5710 5711 5712 5713 5714 5715 5716 5716 5717 5717 5718 5719 5719 5718 5719 5721 5722 5721 5720 5720 5719 5719 5718 5718 5717 5716 5715 5714 5713 5713 5712 5712 5711 5710 5709 5708 5707 5707 5706 5705 5703 5702 5700 5699 5697 5695 5694 5692 5690 5689 5687 5685 5683 5681 5679
5680 5680 5681 5682 5683 5684 5685 5686 5687 5687 5688 5688 5688 5689 5690 5691 5693 5695 5696 5697 5698 5699 5700 5701 5701 5702 5703 5704 5705 5705 5707 5708 5708 5709 5710 5711 5711 5712 5712 5713 5713 5714 5714 5714 5714 5715 5715 5715 5714 5714 5713 5713 5712 5712 5711 5710 5709 5709 5708 5707 5706 5705 5705 5703 5702 5701 5700 5699 5699 5698 5695 5693 5691 5690 5688 5687 5685 5682 5681 5679 5678 5675 5673 5672 5670
5677 5677 5678 5679 5680 5681 5682 5683 5684 5684 5685 5685 5686 5686 5687 5689 5690 5691 5692 5693 5694 5695 5695 5697 5698 5698 5699 5700 5701 5702 5703 5704 5704 5704 5705 5706 5707 5707 5708 5708 5709 5709 5709 5709 5709 5709 5708 5708 5708 5708 5707 5707 5707 5706 5705 5704 5703 5702 5701 5700 5699 5698 5697 5695 5694 5693 5692 5690 5690 5688 5687 5684 5683 5681 5679 5677 5675 5672 5670 5669 5667 5665 5664 5663 5661
5674 5674 5675 5675 5676 5678 5678 5679 5680 5681 5682 5682 5683 5684 5684 5685 5686 5687 5688 5689 5690 5691 5692 5693 5694 5695 5696 5696 5698 5699 5700 5699 5698 5699 5700 5701 5701 5702 5703 5703 5704 5704 5704 5703 5703 5703 5702 5702 5702 5702 5702 5701 5701 5700 5698 5697 5696 5695 5694 5692 5691 5690 5688 5687 5685 5684 5683 5681 5680 5679 5677 5675 5673 5671 5668 5666 5663 5660 5657 5656 5655 5653 5653 5653 5651
5670 5671 5671 5672 5673 5674 5675 5676 5677 5677 5678 5679 5679 5680 5680 5681 5682 5683 5684 5685 5686 5687 5688 5689 5689 5691 5691 5692 5694 5696 5695 5692 5693 5695 5696 5696 5696 5697 5697 5697 5697 5698 5698 5697 5697 5697 5696 5695 5695 5695 5695 5694 5694 5692 5691 5690 5689 5687 5686 5684 5683 5681 5680 5678 5676 5675 5673 5671 5670 5670 5668 5665 5662 5659 5656 5654 5651 5648 5645 5642 5641 5640 5641 5641 5639
5666 5667 5668 5668 5669 5670 5671 5672 5672 5673 5674 5675 5676 5676 5676 5677 5678 5679 5680 5681 5682 5683 5683 5684 5685 5687 5686 5687 5690 5691 5689 5687 5688 5689 5689 5690 5690 5690 5690 5691 5691 5691 5691 5691 5691 5690 5689 5689 5688 5688 5687 5686 5686 5684 5683 5682 5681 5680 5678 5676 5674 5672 5671 5669 5667 5664 5663 5662 5661 5659 5657 5654 5651 5647 5645 5642 5640 5636 5633 5630 5627 5626 5628 5629 5628
5663 5664 5664 5664 5665 5666 5667 5668 5668 5669 5670 5671 5672 5672 5672 5673 5674 5674 5675 5676 5677 5677 5678 5679 5681 5681 5680 5681 5684 5685 5683 5682 5683 5683 5683 5684 5684 5684 5684 5684 5684 5684 5684 5683 5683 5683 5682 5682 5681 5680 5679 5679 5678 5677 5675 5674 5673 5671 5669 5668 5666 5663 5661 5659 5656 5654 5653 5651 5650 5648 5646 5643 5640 5637 5634 5633 5630 5626 5623 5620 5616 5614 5615 5616 5616
5659 5659 5660 5660 5660 5661 5662 5663 5664 5665 5666 5666 5668 5668 5668 5669 5669 5670 5670 5671 5671 5672 5672 5673 5675 5676 5675 5676 5679 5679 5678 5677 5678 5678 5678 5678 5678 5678 5678 5678 5678 5677 5677 5676 5676 5676 5676 5675 5674 5673 5672 5671 5670 5669 5667 5666 5664 5662 5660 5658 5656 5654 5651 5648 5646 5644 5643 5641 5639 5637 5635 5633 5630 5627 5624 5623 5620 5617 5614 5612 5608 5605 5604 5605 5604
5653 5654 5654 5655 5655 5656 5657 5658 5659 5660 5661 5661 5663 5663 5664 5664 5665 5665 5665 5666 5666 5666 5667 5668 5669 5670 5670 5670 5671 5672 5672 5672 5672 5672 5672 5672 5672 5672 5672 5672 5671 5671 5670 5670 5670 5670 5669 5668 5667 5666 5665 5664 5663 5661 5660 5658 5656 5654 5652 5649 5647 5645 5642 5639 5636 5635 5634 5631 5629 5626 5624 5622 5619 5617 5615 5612 5610 5607 5605 5603 5600 5597 5595 5595 5594
5648 5649 5649 5650 5651 5651 5652 5653 5654 5655 5655 5656 5657 5658 5658 5658 5659 5660 5660 5660 5660 5661 5661 5662 5663 5663 5663 5664 5664 5665 5665 5665 5665 5665 5665 5665 5665 5666 5665 5665 5665 5664 5664 5663 5663 5663 5662 5660 5659 5658 5658 5657 5655 5653 5651 5649 5647 5645 5643 5640 5637 5634 5632 5629 5626 5624 5623 5621 5618 5615 5612 5610 5608 5606 5604 5602 5600 5597 5595 5594 5592 5589 5586 5585 5585
5644 5644 5645 5645 5646 5647 5647 5648 5648 5649 5650 5651 5652 5652 5652 5653 5653 5654 5654 5654 5655 5655 5656 5657 5657 5658 5658 5658 5659 5659 5659 5659 5660 5660 5659 5659 5659 5659 5658 5658 5658 5657 5657 5656 5655 5655 5654 5652 5651 5650 5649 5648 5647 5644 5642 5640 5638 5635 5633 5630 5628 5625 5621 5618 5616 5613 5611 5610 5608 5606 5602 5600 5598 5596 5594 5592 5591 5588 5586 5584 5583 5581 5579 5577 5576
5639 5640 5640 5641 5641 5642 5643 5643 5643 5644 5645 5646 5646 5647 5647 5648 5648 5649 5649 5649 5650 5651 5651 5651 5652 5652 5652 5653 5653 5653 5653 5654 5654 5654 5653 5653 5653 5652 5652 5651 5651 5650 5649 5649 5647 5646 5646 5645 5643 5642 5640 5639 5637 5635 5633 5630 5628 5626 5623 5621 5618 5616 5613 5609 5606 5604 5602 5600 5598 5596 5594 5591 5589 5587 5585 5583 5581 5579 5577 5576 5574 5573 5571 5569 5567
5634 5635 5635 5636 5637 5637 5637 5638 5638 5639 5640 5640 5641 5641 5642 5642 5643 5644 5644 5644 5645 5646 5646 5646 5646 5647 5647 5647 5647 5647 5648 5648 5648 5647 5647 5646 5646 5645 5644 5644 5643 5642 5642 5641 5639 5638 5638 5636 5634 5633 5632 5630 5628 5626 5624 5621 5619 5617 5615 5612 5610 5607 5605 5602 5599 5596 5594 5592 5590 5588 5586 5583 5581 5579 5576 5575 5573 5571 5569 5567 5565 5564 5562 5560 5558
5629 5630 5630 5630 5631 5632 5632 5632 5633 5634 5634 5635 5636 5636 5636 5637 5637 5638 5638 5638 5639 5640 5640 5640 5640 5641 5641 5641 5641 5641 5641 5641 5641 5640 5639 5639 5638 5638 5637 5636 5635 5635 5634 5633 5632 5631 5630 5628 5626 5625 5624 5622 5620 5618 5616 5613 5611 5609 5606 5604 5602 5599 5597 5595 5592 5589 5587 5585 5583 5580 5578 5576 5573 5571 5568 5566 5564 5562 5560 5558 5556 5555 5553 5551 5549
5623 5623 5624 5625 5625 5626 5626 5627 5627 5628 5629 5629 5629 5630 5630 5630 5631 5631 5631 5631 5632 5633 5633 5633 5633 5634 5634 5634 5634 5635 5635 5634 5634 5633 5632 5631 5631 5631 5630 5629 5628 5628 5627 5626 5625 5624 5623 5621 5619 5618 5616 5614 5612 5610 5608 5605 5603 5600 5598 5595 5593 5591 5590 5587 5585 5582 5580 5578 5576 5573 5571 5568 5565 5563 5560 5558 5555 5553 5551 5549 5547 5545 5543 5541 5540
5617 5617 5618 5619 5619 5619 5620 5621 5621 5622 5622 5623 5623 5624 5624 5624 5624 5625 5625 5625 5626 5626 5627 5626 5626 5627 5627 5627 5627 5628 5628 5628 5627 5626 5626 5625 5625 5624 5624 5623 5622 5622 5621 5620 5618 5617 5616 5614 5612 5610 5608 5606 5604 5602 5600 5598 5595 5593 5591 5588 5586 5584 5583 5580 5578 5575 5573 5571 5568 5566 5563 5561 5558 5556 5553 5551 5548 5545 5542 5540 5538 5535 5533 5532 5531
5612 5612 5612 5613 5613 5613 5613 5614 5614 5615 5616 5617 5617 5618 5618 5618 5618 5618 5619 5619 5619 5620 5620 5620 5620 5620 5620 5621 5621 5622 5622 5622 5621 5621 5620 5620 5619 5618 5617 5617 5616 5615 5614 5613 5612 5610 5608 5607 5605 5603 5601 5599 5597 5595 5593 5591 5589 5587 5585 5582 5580 5578 5576 5574 5571 5569 5566 5564 5562 5559 5557 5554 5552 5550 5547 5545 5542 5538 5535 5532 5530 5528 5526 5524 5523
5607 5608 5608 5608 5608 5608 5608 5608 5609 5609 5610 5610 5611 5611 5612 5612 5612 5613 5613 5613 5614 5614 5614 5615 5615 5614 5615 5615 5616 5616 5617 5616 5616 5615 5615 5614 5613 5612 5611 5610 5609 5608 5607 5606 5605 5603 5601 5600 5598 5596 5595 5593 5591 5589 5587 5586 5584 5582 5579 5577 5575 5572 5570 5568 5565 5563 5560 5558 5556 5553 5551 5549 5547 5545 5543 5540 5537 5534 5531 5528 5526 5524 5522 5521 5520
5599 5601 5601 5602 5601 5602 5603 5603 5603 5604 5604 5605 5605 5606 5606 5606 5607 5607 5607 5608 5608 5609 5609 5609 5609 5610 5610 5610 5610 5611 5611 5611 5610 5609 5609 5608 5607 5606 5605 5604 5603 5602 5601 5600 5598 5597 5596 5594 5592 5591 5589 5588 5586 5584 5582 5580 5578 5576 5574 5572 5569 5567 5565 5562 5560 5558 5555 5553 5551 5549 5547 5545 5544 5541 5539 5537 5534 5532 5530 5527 5525 5523 5521 5520 5519
5590 5591 5593 5594 5594 5595 5596 5596 5597 5598 5599 5599 5600 5600 5600 5601 5601 5602 5602 5603 5603 5603 5604 5604 5604 5605 5605 5605 5605 5605 5605 5605 5604 5604 5603 5602 5601 5601 5600 5599 5598 5597 5596 5595 5593 5592 5591 5589 5588 5586 5585 5583 5581 5579 5577 5575 5573 5571 5569 5567 5565 5563 5561 5558 5556 5553 5551 5548 5547 5545 5544 5542 5540 5538 5536 5534 5531 5529 5528 5527 5525 5524 5522 5520 5520
5580 5581 5582 5584 5586 5587 5588 5589 5590 5591 5591 5592 5593 5594 5594 5595 5595 5596 5597 5597 5597 5598 5598 5599 5599 5599 5599 5600 5599 5599 5599 5599 5599 5598 5598 5597 5596 5595 5595 5594 5593 5592 5591 5590 5589 5587 5586 5584 5583 5582 5580 5578 5576 5574 5572 5570 5568 5566 5565 5563 5561 5559 5557 5555 5553 5550 5548 5545 5544 5542 5541 5539 5537 5535 5533 5530 5529 5527 5526 5525 5524 5523 5522 5521 5520
5572 5572 5573 5575 5577 5578 5579 5581 5583 5583 5583 5585 5586 5587 5588 5588 5589 5590 5591 5591 5591 5592 5593 5593 5593 5593 5593 5594 5594 5594 5593 5593 5593 5593 5592 5592 5591 5591 5590 5589 5589 5588 5587 5585 5584 5583 5582 5580 5579 5577 5575 5573 5571 5569 5567 5566 5564 5562 5561 5559 5557 5556 5554 5552 5549 5547 5545 5543 5541 5539 5537 5536 5534 5531 5529 5527 5526 5524 5523 5522 5521 5521 5520 5520 5519
5565 5566 5566 5568 5569 5570 5572 5574 5575 5575 5576 5578 5579 5580 5580 5582 5582 5583 5584 5585 5585 5586 5587 5588 5588 5588 5588 5588 5588 5588 5588 5588 5588 5588 5587 5587 5587 5586 5585 5585 5584 5583 5582 5581 5580 5579 5577 5576 5574 5572 5570 5568 5566 5564 5563 5561 5560 5558 5557 5555 5554 5552 5550 5548 5546 5544 5542 5539 5538 5536 5534 5533 5531 5528 5526 5524 5523 5522 5520 5519 5519 5519 5518 5518 5518
5561 5562 5562 5562 5563 5564 5565 5567 5568 5568 5569 5571 5572 5573 5574 5575 5576 5577 5578 5579 5580 5581 5581 5582 5583 5583 5583 5583 5583 5583 5583 5583 5583 5583 5582 5582 5582 5581 5581 5580 5580 5579 5578 5577 5576 5575 5573 5571 5569 5567 5565 5563 5561 5560 5558 5557 5555 5554 5553 5551 5550 5548 5547 5545 5543 5541 5538 5536 5534 5532 5531 5530 5528 5526 5523 5522 5520 5519 5518 5517 5516 5516 5516 5516 5516
5558 5558 5558 5557 5557 5558 5559 5561 5562 5562 5563 5565 5566 5567 5568 5569 5570 5571 5572 5573 5574 5575 5576 5576 5577 5577 5578 5578 5579 5578 5578 5578 5578 5578 5578 5578 5577 5577 5577 5576 5576 5575 5574 5573 5572 5570 5568 5566 5564 5562 5560 5558 5557 5555 5554 5553 5552 5550 5549 5548 5547 5545 5544 5542 5540 5538 5536 5533 5531 5529 5528 5527 5525 5523 5521 5519 5518 5516 5515 5514 5514 5513 5513 5513 5513
5555 5554 5554 5554 5553 5553 5555 5556 5557 5557 5559 5560 5560 5561 5562 5563 5564 5565 5566 5567 5569 5570 5570 5571 5572 5572 5573 5573 5574 5574 5574 5574 5574 5574 5574 5574 5574 5574 5573 5573 5572 5571 5570 5569 5567 5565 5563 5561 5559 5557 5555 5554 5553 5551 5550 5549 5548 5547 5546 5545 5544 5542 5541 5539 5537 5535 5533 5531 5529 5527 5526 5524 5523 5521 5519 5517 5516 5515 5514 5513 5512 5512 5512 5512 5512
5552 5551 5551 5551 5550 5550 5550 5551 5552 5553 5555 5556 5555 5556 5557 5559 5560 5561 5562 5563 5564 5565 5566 5566 5567 5568 5569 5569 5570 5570 5570 5570 5571 5571 5571 5571 5570 5570 5570 5569 5568 5567 5566 5564 5562 5560 5558 5556 5554 5553 5551 5550 5549 5548 5547 5546 5545 5544 5543 5541 5540 5539 5537 5536 5534 5532 5530 5528 5526 5524 5523 5522 5521 5519 5517 5515 5514 5513 5513 5512 5511 5511 5511 5510 5510
5548 5548 5548 5548 5547 5547 5547 5548 5548 5549 5551 5551 5551 5552 5553 5554 5555 5557 5558 5559 5560 5561 5561 5562 5563 5564 5565 5565 5566 5566 5567 5567 5567 5567 5567 5567 5567 5567 5566 5565 5564 5563 5561 5560 5557 5556 5554 5552 5550 5549 5548 5546 5545 5544 5543 5542 5541 5540 5539 5538 5537 5536 5534 5533 5531 5529 5528 5526 5524 5522 5521 5520 5519 5517 5516 5514 5513 5512 5511 5511 5510 5509 5509 5509 5509
5545 5545 5545 5545 5545 5545 5545 5545 5545 5546 5546 5547 5548 5549 5549 5551 5552 5553 5554 5555 5556 5557 5558 5559 5560 5561 5561 5562 5563 5563 5563 5564 5564 5564 5564 5564 5564 5563 5562 5562 5560 5559 5557 5555 5553 5551 5550 5548 5547 5546 5545 5543 5542 5541 5540 5539 5538 5537 5536 5535 5534 5533 5532 5530 5529 5527 5525 5523 5522 5520 5519 5518 5517 5516 5514 5512 5511 5510 5510 5510 5509 5509 5508 5508 5508